SQ7PKP-15 Weather Reports


time (UTC)temp
C
wind
direction
speed
KPH
gust
KPH
rain 1hr
cm
rain 24hr
cm
rain mn
cm
humidity
%
barometer
mb
20260506205319 15 0.0 0.0 0.00 0.00 0.00 88 1007.3
20260506204259 15 0.0 0.0 0.00 0.00 0.00 85 1007.7
20260506203244 15 0.0 0.0 0.00 0.00 0.00 81 1008.4
20260506202244 16 0.0 0.0 0.00 0.00 0.00 72 1009.0
20260506201244 17 0.0 0.0 0.00 0.00 0.00 62 1006.9
20260506200259 17 0.0 0.0 0.00 0.00 0.00 56 1006.0
20260506195300 17 0.0 0.0 0.00 0.00 0.00 55 1006.1
20260506194244 17 0.0 0.0 0.00 0.00 0.00 55 1006.5
20260506193244 17 0.0 0.0 0.00 0.00 0.00 53 1006.7
20260506192244 18 0.0 0.0 0.00 0.00 0.00 52 1006.7
20260506191244 18 0.0 0.0 0.00 0.00 0.00 50 1007.1
20260506190244 19 0.0 0.0 0.00 0.00 0.00 48 1006.8
20260506185244 19 0.0 0.0 0.00 0.00 0.00 46 1006.6
20260506184244 20 0.0 0.0 0.00 0.00 0.00 45 1006.3
20260506183244 20 0.0 0.0 0.00 0.00 0.00 45 1006.3
20260506182247 20 0.0 0.0 0.00 0.00 0.00 44 1006.3
20260506181244 21 0.0 0.0 0.00 0.00 0.00 42 1006.1
20260506180245 21 0.0 0.0 0.00 0.00 0.00 41 1006.0
20260506175247 22 0.0 0.0 0.00 0.00 0.00 40 1005.9
20260506174244 22 0.0 0.0 0.00 0.00 0.00 39 1006.1
20260506173244 23 0.0 0.0 0.00 0.00 0.00 38 1005.9
20260506172244 23 0.0 0.0 0.00 0.00 0.00 37 1005.5
20260506171244 23 0.0 0.0 0.00 0.00 0.00 35 1005.7
20260506170244 24 0.0 0.0 0.00 0.00 0.00 34 1006.3
20260506165244 25 0.0 0.0 0.00 0.00 0.00 33 1006.2
20260506164259 25 0.0 0.0 0.00 0.00 0.00 33 1005.9
20260506163244 26 0.0 0.0 0.00 0.00 0.00 31 1004.5
20260506162244 26 0.0 0.0 0.00 0.00 0.00 32 1005.0
20260506161300 26 0.0 0.0 0.00 0.00 0.00 32 1005.6
20260506160243 26 0.0 0.0 0.00 0.00 0.00 33 1005.2
20260506155259 26 0.0 0.0 0.00 0.00 0.00 32 1004.7
20260506154244 26 0.0 0.0 0.00 0.00 0.00 34 1006.1
20260506153244 26 0.0 0.0 0.00 0.00 0.00 32 1005.7
20260506152244 26 0.0 0.0 0.00 0.00 0.00 33 1004.1
20260506151244 26 0.0 0.0 0.00 0.00 0.00 33 1004.3
20260506150244 25 0.0 0.0 0.00 0.00 0.00 34 1006.3
20260506145244 25 0.0 0.0 0.00 0.00 0.00 33 1006.2
20260506144244 26 0.0 0.0 0.00 0.00 0.00 32 1005.6
20260506143244 26 0.0 0.0 0.00 0.00 0.00 31 1005.1
20260506142305 26 0.0 0.0 0.00 0.00 0.00 33 1004.4
20260506141259 25 0.0 0.0 0.00 0.00 0.00 33 1006.5
20260506140243 26 0.0 0.0 0.00 0.00 0.00 32 1004.8
20260506135245 25 0.0 0.0 0.00 0.00 0.00 34 1006.0
20260506134244 26 0.0 0.0 0.00 0.00 0.00 34 1004.3
20260506133244 25 0.0 0.0 0.00 0.00 0.00 35 1005.5
20260506132244 25 0.0 0.0 0.00 0.00 0.00 34 1005.4
20260506131243 25 0.0 0.0 0.00 0.00 0.00 36 1004.7
20260506130243 24 0.0 0.0 0.00 0.00 0.00 36 1004.9
20260506125244 24 0.0 0.0 0.00 0.00 0.00 36 1006.2
20260506124244 24 0.0 0.0 0.00 0.00 0.00 39 1004.8
20260506123259 23 0.0 0.0 0.00 0.00 0.00 40 1005.4
20260506122244 23 0.0 0.0 0.00 0.00 0.00 40 1005.4
20260506121244 23 0.0 0.0 0.00 0.00 0.00 41 1003.5
20260506120244 22 0.0 0.0 0.00 0.00 0.00 43 1007.1
20260506115244 23 0.0 0.0 0.00 0.00 0.00 42 1008.0
20260506114244 25 0.0 0.0 0.00 0.00 0.00 40 1003.6
20260506113247 23 0.0 0.0 0.00 0.00 0.00 43 1005.6
20260506112247 23 0.0 0.0 0.00 0.00 0.00 43 1005.9
20260506111300 23 0.0 0.0 0.00 0.00 0.00 45 1005.5
20260506110244 23 0.0 0.0 0.00 0.00 0.00 47 1005.0
20260506105244 22 0.0 0.0 0.00 0.00 0.00 48 1004.5
20260506104259 21 0.0 0.0 0.00 0.00 0.00 48 1007.5
20260506103244 22 0.0 0.0 0.00 0.00 0.00 46 1006.2
20260506102244 22 0.0 0.0 0.00 0.00 0.00 47 1005.7
20260506101246 22 0.0 0.0 0.00 0.00 0.00 47 1005.7
20260506100244 22 0.0 0.0 0.00 0.00 0.00 47 1006.7
20260506095243 22 0.0 0.0 0.00 0.00 0.00 46 1006.1
20260506094247 23 0.0 0.0 0.00 0.00 0.00 44 1005.3
20260506093244 22 0.0 0.0 0.00 0.00 0.00 45 1004.7
20260506092244 22 0.0 0.0 0.00 0.00 0.00 46 1005.5
20260506091243 22 0.0 0.0 0.00 0.00 0.00 48 1004.1
20260506090243 21 0.0 0.0 0.00 0.00 0.00 49 1004.9
20260506085247 21 0.0 0.0 0.00 0.00 0.00 51 1005.9
20260506084243 21 0.0 0.0 0.00 0.00 0.00 50 1005.2
20260506083259 21 0.0 0.0 0.00 0.00 0.00 51 1005.4
20260506082244 20 0.0 0.0 0.00 0.00 0.00 51 1005.5
20260506081244 20 0.0 0.0 0.00 0.00 0.00 52 1005.9
20260506080244 20 0.0 0.0 0.00 0.00 0.00 52 1003.7
20260506073244 17 0.0 0.0 0.00 0.00 0.00 59 1005.6
20260506072244 17 0.0 0.0 0.00 0.00 0.00 61 1005.9
20260506071243 18 0.0 0.0 0.00 0.00 0.00 59 1004.8
20260506070244 17 0.0 0.0 0.00 0.00 0.00 60 1005.5
20260506062244 16 0.0 0.0 0.00 0.00 0.00 63 1003.9
20260506061243 16 0.0 0.0 0.00 0.00 0.00 67 1004.1
20260506060247 15 0.0 0.0 0.00 0.00 0.00 67 1005.1
20260506051244 13 0.0 0.0 0.00 0.00 0.00 73 1004.5
20260506050244 13 0.0 0.0 0.00 0.00 0.00 77 1004.9
20260506044259 12 0.0 0.0 0.00 0.00 0.00 85 1004.9
20260506043247 11 0.0 0.0 0.00 0.00 0.00 83 1004.9
20260506042243 11 0.0 0.0 0.00 0.00 0.00 85 1005.1
20260506041243 11 0.0 0.0 0.00 0.00 0.00 86 1005.0
20260506040247 10 0.0 0.0 0.00 0.00 0.00 89 1005.1
20260506035244 10 0.0 0.0 0.00 0.00 0.00 93 1005.5
20260506034244 9 0.0 0.0 0.00 0.00 0.00 94 1005.9
20260506033244 9 0.0 0.0 0.00 0.00 0.00 94 1006.3
20260506032244 10 0.0 0.0 0.00 0.00 0.00 94 1006.1
20260506031247 10 0.0 0.0 0.00 0.00 0.00 95 1006.2
20260506030244 10 0.0 0.0 0.00 0.00 0.00 96 1006.3
20260506025243 10 0.0 0.0 0.00 0.00 0.00 96 1006.6
20260506024244 10 0.0 0.0 0.00 0.00 0.00 97 1006.1
20260506023243 10 0.0 0.0 0.00 0.00 0.00 98 1006.1
20260506022244 10 0.0 0.0 0.00 0.00 0.00 99 1006.1
20260506021244 10 0.0 0.0 0.00 0.00 0.00 98 1006.2
20260506020245 10 0.0 0.0 0.00 0.00 0.00 97 1006.5
20260506015243 11 0.0 0.0 0.00 0.00 0.00 98 1006.5
20260506014259 11 0.0 0.0 0.00 0.00 0.00 98 1006.3
20260506013302 11 0.0 0.0 0.00 0.00 0.00 97 1006.7
20260506012243 11 0.0 0.0 0.00 0.00 0.00 97 1006.4
20260506011244 11 0.0 0.0 0.00 0.00 0.00 97 1006.4
20260506010244 11 0.0 0.0 0.00 0.00 0.00 96 1006.5
20260506005247 11 0.0 0.0 0.00 0.00 0.00 96 1006.5
20260506004331 12 0.0 0.0 0.00 0.00 0.00 94 1006.6
20260506003244 12 0.0 0.0 0.00 0.00 0.00 95 1006.4
20260506002244 12 0.0 0.0 0.00 0.00 0.00 94 1006.6
20260506001259 12 0.0 0.0 0.00 0.00 0.00 94 1006.3
20260506000243 12 0.0 0.0 0.00 0.00 0.00 94 1006.4
20260505235243 12 0.0 0.0 0.00 0.00 0.00 93 1006.5
20260505234247 12 0.0 0.0 0.00 0.00 0.00 93 1006.4
20260505233314 12 0.0 0.0 0.00 0.00 0.00 92 1006.5
20260505232244 12 0.0 0.0 0.00 0.00 0.00 89 1006.9
20260505231300 12 0.0 0.0 0.00 0.00 0.00 89 1007.1
20260505230243 12 0.0 0.0 0.00 0.00 0.00 88 1007.3
20260505225244 13 0.0 0.0 0.00 0.00 0.00 87 1007.1
20260505224244 13 0.0 0.0 0.00 0.00 0.00 87 1007.2
20260505223247 13 0.0 0.0 0.00 0.00 0.00 86 1007.1
20260505222244 13 0.0 0.0 0.00 0.00 0.00 85 1007.2
20260505221243 13 0.0 0.0 0.00 0.00 0.00 84 1006.9
20260505220259 14 0.0 0.0 0.00 0.00 0.00 84 1006.9
20260505215243 14 0.0 0.0 0.00 0.00 0.00 83 1007.3
20260505214244 14 0.0 0.0 0.00 0.00 0.00 82 1007.0
20260505213244 15 0.0 0.0 0.00 0.00 0.00 82 1006.8
20260505212247 15 0.0 0.0 0.00 0.00 0.00 82 1007.2
20260505211244 15 0.0 0.0 0.00 0.00 0.00 80 1007.1
20260505210243 15 0.0 0.0 0.00 0.00 0.00 80 1006.9